Location: Bottens
(46.6171°N, 6.6605°E)
Time: 20:05:23
(UTC+00:00)

Cosmos 1943 Rocket - Pass Details

Date: 20 June 2021
Orbit: 813 x 843 km, 71.0° (Epoch: 02 August)

Event Time Altitude Azimuth Distance (km) Brightness Sun altitude
Rises 01:22:33 0° 315° (NW) 3,345 5.6 -15.8°
Reaches altitude 10° 01:26:23 10° 289° (WNW) 2,410 4.5 -15.6°
Maximum altitude 01:28:43 13° 264° (W) 2,213 4.1 -15.4°
Enters shadow 01:29:42 12° 252° (WSW) 2,249 4.0 -15.3°
